N828WW -KMCO

Flight info

Callsign N828WW
Flight time N/A
Altitude
Route
Aircraft BE56/L-DOV/C

Departure

Time N/A
Airport -

Arrival

Time 2026-05-05 00:38
Airport Orlando International Airport (KMCO)
Time Latitude Longitude Altitude Speed Heading
2026-05-05 00:11 29.65356 -81.75036 9516 ft 230 kts 171°
2026-05-05 00:11 29.63793 -81.74616 9516 ft 231 kts 171°
2026-05-05 00:12 29.62229 -81.74197 9512 ft 231 kts 171°
2026-05-05 00:12 29.60666 -81.73782 9512 ft 230 kts 170°
2026-05-05 00:12 29.59099 -81.73382 9514 ft 230 kts 171°
2026-05-05 00:12 29.57536 -81.72975 9514 ft 230 kts 170°
2026-05-05 00:13 29.55975 -81.72561 9504 ft 230 kts 171°
2026-05-05 00:13 29.54419 -81.72133 9506 ft 230 kts 171°
2026-05-05 00:13 29.52864 -81.71700 9487 ft 230 kts 170°
2026-05-05 00:13 29.51314 -81.71273 9487 ft 229 kts 170°
2026-05-05 00:14 29.49767 -81.70848 9492 ft 228 kts 170°
2026-05-05 00:14 29.48223 -81.70424 9490 ft 228 kts 170°
2026-05-05 00:14 29.46684 -81.70002 9491 ft 228 kts 170°
2026-05-05 00:14 29.45141 -81.69579 9485 ft 228 kts 170°
2026-05-05 00:15 29.43599 -81.69155 9485 ft 228 kts 170°
2026-05-05 00:15 29.42059 -81.68731 9487 ft 228 kts 170°
2026-05-05 00:15 29.40521 -81.68308 9488 ft 228 kts 170°
2026-05-05 00:15 29.38980 -81.67884 9487 ft 228 kts 170°
2026-05-05 00:16 29.37441 -81.67461 9493 ft 228 kts 170°
2026-05-05 00:16 29.35899 -81.67036 9494 ft 228 kts 170°
2026-05-05 00:16 29.34381 -81.66618 9494 ft 228 kts 170°
2026-05-05 00:16 29.32838 -81.66196 9486 ft 228 kts 170°
2026-05-05 00:17 29.31296 -81.65777 9486 ft 227 kts 170°
2026-05-05 00:17 29.29755 -81.65372 9489 ft 227 kts 170°
2026-05-05 00:17 29.28212 -81.64984 9490 ft 227 kts 170°
2026-05-05 00:17 29.26668 -81.64587 9490 ft 228 kts 170°
2026-05-05 00:18 29.25126 -81.64179 9488 ft 227 kts 171°
2026-05-05 00:18 29.23622 -81.63608 9489 ft 231 kts 156°
2026-05-05 00:18 29.22240 -81.62660 9488 ft 232 kts 150°
2026-05-05 00:18 29.20879 -81.61668 9486 ft 232 kts 150°
2026-05-05 00:19 29.19519 -81.60677 9487 ft 232 kts 150°
2026-05-05 00:19 29.18157 -81.59684 9486 ft 232 kts 150°
2026-05-05 00:19 29.16800 -81.58683 9488 ft 232 kts 150°
2026-05-05 00:19 29.15440 -81.57686 9488 ft 232 kts 150°
2026-05-05 00:20 29.14079 -81.56693 9488 ft 232 kts 150°
2026-05-05 00:20 29.12718 -81.55700 9498 ft 232 kts 150°
2026-05-05 00:20 29.11358 -81.54707 9499 ft 232 kts 150°
2026-05-05 00:20 29.09996 -81.53715 9437 ft 234 kts 150°
2026-05-05 00:21 29.08612 -81.52705 9169 ft 237 kts 150°
2026-05-05 00:21 29.07219 -81.51689 8896 ft 237 kts 150°
2026-05-05 00:21 29.05823 -81.50682 8624 ft 237 kts 150°
2026-05-05 00:21 29.04386 -81.49769 8354 ft 234 kts 163°
2026-05-05 00:22 29.02842 -81.49331 8092 ft 231 kts 172°
2026-05-05 00:22 29.01262 -81.48994 7826 ft 230 kts 173°
2026-05-05 00:22 28.99686 -81.48679 7560 ft 229 kts 172°
2026-05-05 00:22 28.98117 -81.48375 7294 ft 228 kts 173°
2026-05-05 00:23 28.96557 -81.48075 7035 ft 226 kts 173°
2026-05-05 00:23 28.95010 -81.47763 6775 ft 225 kts 173°
2026-05-05 00:23 28.93472 -81.47452 6515 ft 224 kts 173°
2026-05-05 00:23 28.91942 -81.47142 6241 ft 224 kts 173°
2026-05-05 00:24 28.90389 -81.46837 5964 ft 228 kts 174°
2026-05-05 00:24 28.88816 -81.46535 5690 ft 230 kts 173°
2026-05-05 00:24 28.87236 -81.46252 5504 ft 227 kts 174°
2026-05-05 00:24 28.85712 -81.45968 5495 ft 218 kts 173°
2026-05-05 00:25 28.84236 -81.45683 5487 ft 212 kts 174°
2026-05-05 00:25 28.82794 -81.45387 5487 ft 209 kts 173°
2026-05-05 00:25 28.81369 -81.45100 5487 ft 207 kts 173°
2026-05-05 00:25 28.79950 -81.44828 5491 ft 206 kts 174°
2026-05-05 00:26 28.78534 -81.44551 5493 ft 206 kts 173°
2026-05-05 00:26 28.77120 -81.44286 5492 ft 206 kts 173°
2026-05-05 00:26 28.75705 -81.44019 5493 ft 205 kts 173°
2026-05-05 00:26 28.74296 -81.43749 5493 ft 205 kts 174°
2026-05-05 00:27 28.72886 -81.43475 5492 ft 205 kts 174°
2026-05-05 00:27 28.71484 -81.43187 5490 ft 205 kts 172°
2026-05-05 00:27 28.70082 -81.42917 5487 ft 204 kts 173°
2026-05-05 00:27 28.68677 -81.42643 5486 ft 204 kts 172°
2026-05-05 00:28 28.67274 -81.42382 5485 ft 205 kts 173°
2026-05-05 00:28 28.65871 -81.42135 5491 ft 204 kts 174°
2026-05-05 00:28 28.64476 -81.41881 5491 ft 204 kts 174°
2026-05-05 00:28 28.63076 -81.41626 5492 ft 203 kts 174°
2026-05-05 00:29 28.61700 -81.41365 5490 ft 203 kts 174°
2026-05-05 00:29 28.60305 -81.41099 5490 ft 203 kts 173°
2026-05-05 00:29 28.58911 -81.40841 5491 ft 203 kts 174°
2026-05-05 00:29 28.57518 -81.40578 5488 ft 203 kts 173°
2026-05-05 00:30 28.56123 -81.40329 5490 ft 203 kts 173°
2026-05-05 00:30 28.54729 -81.40082 5491 ft 203 kts 174°
2026-05-05 00:30 28.53339 -81.39820 5491 ft 203 kts 173°
2026-05-05 00:30 28.51948 -81.39553 5492 ft 202 kts 173°
2026-05-05 00:31 28.50562 -81.39274 5490 ft 202 kts 172°
2026-05-05 00:31 28.49170 -81.39006 5490 ft 203 kts 174°
2026-05-05 00:31 28.47775 -81.38743 5493 ft 203 kts 173°
2026-05-05 00:31 28.46381 -81.38479 5491 ft 203 kts 173°
2026-05-05 00:32 28.44983 -81.38224 5477 ft 204 kts 173°
2026-05-05 00:32 28.43587 -81.37969 5167 ft 201 kts 172°
2026-05-05 00:32 28.42251 -81.37729 4732 ft 187 kts 172°
2026-05-05 00:32 28.41002 -81.37532 4277 ft 176 kts 172°
2026-05-05 00:33 28.39817 -81.37411 3842 ft 167 kts 173°
2026-05-05 00:33 28.38676 -81.37342 3413 ft 162 kts 173°
2026-05-05 00:33 28.37568 -81.37302 2979 ft 157 kts 173°
2026-05-05 00:33 28.36498 -81.37280 2544 ft 155 kts 173°
2026-05-05 00:34 28.35417 -81.37261 2113 ft 155 kts 173°
2026-05-05 00:34 28.34437 -81.37011 1897 ft 133 kts 143°
2026-05-05 00:34 28.33797 -81.36266 1629 ft 136 kts 118°
2026-05-05 00:34 28.33517 -81.35235 1490 ft 135 kts 98°
2026-05-05 00:35 28.33620 -81.34161 1403 ft 139 kts 70°
2026-05-05 00:35 28.34197 -81.33319 1394 ft 139 kts 39°
2026-05-05 00:35 28.35126 -81.32899 1217 ft 148 kts 20°
2026-05-05 00:35 28.36095 -81.32723 1022 ft 136 kts
2026-05-05 00:36 28.36984 -81.32700 939 ft 115 kts 11°
2026-05-05 00:36 28.37759 -81.32673 839 ft 110 kts
2026-05-05 00:36 28.38499 -81.32641 712 ft 105 kts
2026-05-05 00:36 28.39227 -81.32647 564 ft 102 kts
2026-05-05 00:37 28.39931 -81.32649 395 ft 100 kts
2026-05-05 00:37 28.40659 -81.32673 323 ft 109 kts
2026-05-05 00:37 28.41410 -81.32660 168 ft 107 kts
2026-05-05 00:37 28.42081 -81.32673 94 ft 82 kts
2026-05-05 00:38 28.42508 -81.32674 93 ft 35 kts
2026-05-05 00:38 28.42644 -81.32728 93 ft 17 kts 290°
2026-05-05 00:38 28.42651 -81.32800 93 ft 0 kts 271°